[[{"header":{"parameterUnit":"m.s-1","parameterCategory":1,"la1":30.2992,"la2":30.254,"lo1":-89.0895,"lo2":-89.0443,"dy":0.0025,"dx":0.0025,"nx":19,"ny":19,"refTime":"2026-03-17T21:00:00:Z","depth":0,"parameterNumber":2,"parameterNumberName":"U-component_of_WINDS"},"data":[0,0,0,2.1518,2.1519,2.1545,2.1546,2.1574,2.1574,0,0,0,0,0,0,0,0,0,0,0,2.1508,2.1508,2.1518,2.1519,2.1545,2.1546,2.1574,2.1574,0,0,0,0,0,0,0,0,0,0,0,2.1508,2.1508,2.1508,2.1519,2.1545,2.1546,2.1574,2.1556,0,0,0,0,0,0,0,0,0,0,2.1531,2.152,2.1508,2.1508,2.1519,2.1545,2.1546,2.1555,2.1557,2.156,0,2.1563,0,2.1569,2.1576,2.1576,0,0,0,2.1521,2.1518,2.1527,2.1508,2.1519,2.1545,2.1534,2.1556,2.1558,2.1563,2.1564,2.1565,2.157,2.1576,2.1576,2.159,2.1589,0,0,2.1519,2.1512,2.1526,2.1528,2.1525,2.1533,2.1535,2.1558,2.1558,2.1564,2.1566,2.157,2.1576,2.1577,2.159,2.1589,0,0,0,2.1514,2.1511,2.1519,2.1527,2.1532,2.1534,2.1536,2.1557,2.156,2.1566,2.157,2.1577,2.1577,2.159,2.159,2.1581,0,0,0,2.1513,2.1508,2.1519,2.1514,2.1532,2.1545,2.1534,2.1559,2.1562,2.157,2.1577,2.1577,2.159,2.159,2.1581,2.1578,0,0,0,2.1507,2.1507,2.151,2.1514,2.1525,2.1545,2.155,2.156,2.1564,2.1576,2.1577,2.159,2.159,2.1582,2.1579,2.1578,0,0,0,2.1499,2.1503,2.151,2.1516,2.1525,2.154,2.155,2.1561,2.157,2.1577,2.159,2.159,2.1582,2.1579,2.1579,2.1577,2.1575,0,0,2.15,2.1503,2.1507,2.1514,2.1525,2.1536,2.1546,2.1562,2.157,2.1582,2.1583,2.1581,2.1579,2.1578,2.1571,2.157,0,0,0,2.1505,2.1508,2.1512,2.1521,2.1532,2.1541,2.1556,2.1561,2.1572,2.1575,2.1582,2.158,2.1581,2.158,2.1579,2.1579,2.1589,2.1589,2.1589,2.1497,2.1506,2.1512,2.1524,2.1531,2.1545,2.1551,2.1561,2.1569,2.157,2.1574,2.1568,2.1567,2.1566,2.1566,2.1574,2.1574,2.1574,2.1574,2.1499,2.1503,2.1511,2.1521,2.1529,2.1537,2.1549,2.1554,2.1562,2.1567,2.1567,2.1571,2.1565,2.1565,2.1573,2.1573,2.1573,2.1573,2.1573,2.1494,2.1498,2.1503,2.1514,2.1521,2.1532,2.1538,2.1547,2.1554,2.1555,2.1558,2.1559,2.1559,2.1556,2.1556,2.1556,2.1556,2.1556,2.1556,2.1487,2.1493,2.1498,2.1508,2.1513,2.1521,2.1532,2.1537,2.1545,2.155,2.155,2.1556,2.1563,2.1564,2.1556,2.1556,2.1556,2.1556,2.1556,2.1485,2.1486,2.1493,2.1497,2.1509,2.1514,2.1524,2.1532,2.1537,2.1539,2.1545,2.1549,2.1552,2.1553,2.1554,2.1544,2.1544,2.1544,2.1544,2.1481,2.1483,2.149,2.1496,2.1504,2.1512,2.1517,2.1526,2.1534,2.1537,2.154,2.1542,2.1542,2.1546,2.1547,2.1547,2.1536,2.1536,2.1536,2.1479,2.1482,2.1486,2.1494,2.1503,2.1509,2.1514,2.152,2.153,2.1536,2.154,2.154,2.1543,2.1544,2.155,2.1551,2.1553,0,0]},{"header":{"parameterUnit":"m.s-1","parameterCategory":1,"la1":30.2992,"la2":30.254,"lo1":-89.0895,"lo2":-89.0443,"dy":0.0025,"dx":0.0025,"nx":19,"ny":19,"refTime":"2026-03-17T21:00:00:Z","depth":0,"parameterNumber":3,"parameterNumberName":"V-component_of_WINDS"},"data":[0,0,0,2.195,2.1951,2.1989,2.1989,2.2029,2.2029,0,0,0,0,0,0,0,0,0,0,0,2.1935,2.1935,2.195,2.1951,2.1989,2.1989,2.2029,2.2029,0,0,0,0,0,0,0,0,0,0,0,2.1935,2.1935,2.1935,2.1951,2.1989,2.1989,2.2029,2.2003,0,0,0,0,0,0,0,0,0,0,2.1967,2.195,2.1935,2.1935,2.1951,2.1989,2.1989,2.2002,2.2004,2.2008,0,2.2012,0,2.2021,2.2031,2.2031,0,0,0,2.1954,2.1948,2.1962,2.1936,2.1952,2.1989,2.1973,2.2003,2.2006,2.2012,2.2012,2.2014,2.2022,2.2031,2.2032,2.2047,2.2047,0,0,2.1951,2.194,2.1959,2.1963,2.1959,2.1971,2.1974,2.2005,2.2005,2.2013,2.2015,2.2022,2.2032,2.2032,2.2047,2.2047,0,0,0,2.1944,2.1938,2.1951,2.1962,2.1969,2.1972,2.1975,2.2003,2.2009,2.2016,2.2023,2.2032,2.2032,2.2047,2.2047,2.2033,0,0,0,2.1943,2.1934,2.195,2.1943,2.1968,2.1987,2.1973,2.2007,2.2011,2.2023,2.2032,2.2033,2.2047,2.2047,2.2033,2.2028,0,0,0,2.1934,2.1933,2.1937,2.1943,2.1959,2.1987,2.1994,2.2008,2.2015,2.2031,2.2033,2.2047,2.2047,2.2034,2.2029,2.2028,0,0,0,2.1921,2.1924,2.1937,2.1943,2.1958,2.1978,2.1994,2.201,2.2022,2.2032,2.2047,2.2047,2.2034,2.203,2.2029,2.2025,2.2023,0,0,2.1919,2.1924,2.1928,2.194,2.1955,2.1974,2.1986,2.2008,2.202,2.2037,2.2037,2.2033,2.2029,2.2028,2.2014,2.2012,0,0,0,2.1923,2.1926,2.1933,2.1945,2.1962,2.1976,2.1998,2.2005,2.202,2.2027,2.2033,2.2031,2.2031,2.203,2.2028,2.2028,2.2046,2.2046,2.2046,2.1904,2.1918,2.1926,2.1945,2.1956,2.1978,2.1987,2.2001,2.2014,2.2014,2.202,2.2009,2.2008,2.2006,2.2006,2.2019,2.2019,2.2019,2.2019,2.1901,2.1907,2.1922,2.1935,2.195,2.1961,2.198,2.1988,2.1999,2.2007,2.2008,2.2015,2.2004,2.2004,2.2018,2.2018,2.2018,2.2018,2.2019,2.189,2.1895,2.1905,2.1922,2.1933,2.1951,2.1961,2.1974,2.1986,2.1987,2.1993,2.1993,2.1995,2.1989,2.1989,2.1989,2.1989,2.1989,2.1989,2.1874,2.1885,2.1892,2.1909,2.1918,2.193,2.195,2.1958,2.197,2.1979,2.1979,2.1989,2.2,2.2002,2.1988,2.1988,2.1988,2.1988,2.1988,2.1866,2.187,2.188,2.1888,2.1908,2.1917,2.1934,2.1948,2.1957,2.196,2.1971,2.1977,2.1983,2.1984,2.1986,2.1968,2.1968,2.1968,2.1968,2.1856,2.186,2.1873,2.1885,2.1898,2.1913,2.1922,2.1937,2.1952,2.1958,2.1962,2.1966,2.1967,2.1972,2.1974,2.1976,2.1956,2.1956,2.1956,2.1852,2.1857,2.1864,2.188,2.1895,2.1908,2.1917,2.1928,2.1947,2.1956,2.1962,2.1963,2.1969,2.197,2.198,2.1982,2.1986,0,0]}]]